ONEWEB-0696, 56723

Orbit data source: Space-Track

ONEWEB-0696, 56723 is a payload satellite owned by One Web (NAA) (UK) in LEO that was launched on Sat, 20 May 2023 UTC via an FALCON 9 launch vehicle from the Air Force Western Test Range (AFWTR). Payload-class satellites include a variety of spacecraft equipped with specific instruments for various scientific and technological missions. These include communications satellites like Starlink; space stations such as the ISS; scientific satellites like the Hubble; Earth observation satellites from companies like Planet Labs, Umbra, and HawkEye 360; GPS; miniature CubeSats for education and research; and military/defense satellites.

Loading next visibility...
Identifier
56723, 2023-068P
Orbit
LEO
Country
Flag of UKUK
Related business
Manufacturer
One Web
Mission
Operational Commercial Communications
Bus & Motor
ARROW, Unknown motor
Mass
148 kg wet, ~140 kg dry
Launch date (UTC)
2023-05-20 (3 years ago)
Launch vehicle
FALCON 9
Launch site
Air Force Western Test Range (AFWTR)
Object type
Payload
Rocket body
Debris
Shape & HBR
Trap Box + 2 Pan, 6.7 m
Radar Cross Section
3.464 m², Large (>1 m²)

Expand to show TLE details & history
Last TLE update: 2 days ago

TLE from 2 days ago
0 ONEWEB-0696
1 56723U 23068P   26171.21495562 -.00000038  00000-0 -13387-3 0  9991
2 56723  87.9005 258.6196 0001498 101.4204 258.7095 13.15546783149761
Epoch: 2026-06-20T05:09Z
TLE epoch observation values (Epoch: 2026-06-20T05:09:32.165Z)
Latitude
0.00001°
Longitude
-87.1972°
Altitude
1,204.895 km
Speed
7.251 km/s
True Right ascension
17h 14m 28s
True Declination
0° 00' 00"
Sunlit
Object was in full shadow at epoch
Visualization orbit readout
Latitude
Unknown
Longitude
Unknown
Altitude
Unknown
Speed
Unknown
Apparent Right ascension
Unknown
Apparent Declination
Unknown
Sunlit
N/A
Visualization observer readout
Local Sidereal Time
21:32:04
Azimuth
Unknown
Elevation
Unknown
Doppler factor
Unknown
Orbital elements
Apogee altitude
1,200.025 km
Perigee altitude
1,197.755 km
Semi-major axis
7,577.027 km
Eccentricity
0.00015
Inclination
87.9005°
RAAN
258.6196°
Arg. of periapsis
101.4204°
True anomaly
258.69267°
Mean anomaly
258.7095°
Eccentric anomaly
258.70108°
Mean motion
3.29075 °/min
Orbital period
109.4 mins
BSTAR
-0.00013387
Loading maneuver chart data...
Computing Atmospheric mass density...
Loading historical data...
Loading historical data...
Loading historical data...
Loading historical data...
Loading historical data...
Loading historical data...
Loading historical data...

Documentation

Showing up to 5 results
|